Location: San Pelegr�n
(42.1868°N, 0.0079°E)
Time: 17:39:12
(UTC+00:00)

FengYun 1-2 T - Pass Details

Date: 24 January 2020
Orbit: 846 x 881 km, 98.7° (Epoch: 22 February)

Event Time Altitude Azimuth Distance (km) Brightness Sun altitude
Rises 17:51:09 0° 157° (SSE) 3,450 7.3 -9.1°
Reaches altitude 10° 17:53:32 10° 155° (SSE) 2,520 6.6 -9.5°
Maximum altitude 17:59:06 69° 73° (ENE) 939 4.2 -10.5°
Drops below altitude 10° 18:04:44 10° 351° (N) 2,548 6.6 -11.5°
Sets 18:07:09 0° 349° (N) 3,491 7.4 -11.9°
